Tracking 33485 objects as of 15-Mar-2026
HD Live streaming from Space Station
objects crossing your sky now

STARLINK-35542

Track STARLINK-35542 now!
10-day predictions
STARLINK-35542 is classified as:


NORAD ID: 66064
Int'l Code: 2025-235G
Perigee: 481.6 km
Apogee: 483.2 km
Inclination: 53.2 °
Period: 94.1 minutes
Semi major axis: 6853 km
RCS: Unknown
Launch date: October 19, 2025
Source: United States (US)
Launch site: AIR FORCE EASTERN TEST RANGE (AFETR)
Your satellite tracking list
Your tracking list is empty




NASA's NSSDC Master Catalog

Two Line Element Set (TLE):
1 66064U 25235G   26073.81429064  .00017231  00000-0  59292-3 0  9995
2 66064  53.1585 221.6407 0001202  73.9284 286.1849 15.30179275 23701
Source of the keplerian elements: AFSPC